Hourly Weather Horga

Today, 6 May, Thursday

Time Temperature Precipitation Wind Pressure Humidity
00:00 -2°C° 0.1 mm 3 mps 671 mmHg 89%
01:00 -2°C° 0.1 mm 3 mps 672 mmHg 88%
02:00 -2°C° 0.1 mm 2 mps 672 mmHg 89%
03:00 -2°C° 0.1 mm 2 mps 672 mmHg 90%
04:00 -3°C° 0.1 mm 2 mps 673 mmHg 91%
05:00 -2°C° 0.1 mm 2 mps 673 mmHg 86%
06:00 -1°C° 0.1 mm 2 mps 673 mmHg 82%
07:00 +1°C° 0.1 mm 2 mps 674 mmHg 78%
08:00 +2°C° 0 mm 2 mps 674 mmHg 74%
09:00 +4°C° 0 mm 2 mps 674 mmHg 70%
10:00 +5°C° 0 mm 2 mps 674 mmHg 66%
11:00 +5°C° 0 mm 3 mps 673 mmHg 61%
12:00 +7°C° 0 mm 3 mps 673 mmHg 56%
13:00 +8°C° 0 mm 3 mps 673 mmHg 51%
14:00 +6°C° 0 mm 4 mps 673 mmHg 51%
15:00 +6°C° 0 mm 5 mps 673 mmHg 52%
16:00 +4°C° 0 mm 6 mps 673 mmHg 52%
17:00 +2°C° 0 mm 5 mps 673 mmHg 55%
18:00 +1°C° 0 mm 5 mps 673 mmHg 59%
19:00 -1°C° 0 mm 4 mps 673 mmHg 62%
20:00 -2°C° 0 mm 4 mps 673 mmHg 66%
21:00 -2°C° 0 mm 3 mps 672 mmHg 70%
22:00 -2°C° 0 mm 3 mps 672 mmHg 73%
23:00 -4°C° 0 mm 3 mps 672 mmHg 76%

Tomorrow, 7 May, Friday

Time Temperature Precipitation Wind Pressure Humidity
00:00 -3°C° 0 mm 2 mps 672 mmHg 78%
01:00 -4°C° 0 mm 2 mps 672 mmHg 80%
02:00 -4°C° 0 mm 2 mps 672 mmHg 81%
03:00 -2°C° 0 mm 1 mps 672 mmHg 82%
04:00 -2°C° 0 mm 1 mps 672 mmHg 84%
05:00 -2°C° 0 mm 2 mps 672 mmHg 77%
06:00 +1°C° 0 mm 2 mps 672 mmHg 70%
07:00 +3°C° 0 mm 2 mps 672 mmHg 63%
08:00 +5°C° 0 mm 2 mps 672 mmHg 59%
09:00 +7°C° 0 mm 3 mps 671 mmHg 56%
10:00 +8°C° 0 mm 3 mps 671 mmHg 52%
11:00 +9°C° 0 mm 3 mps 671 mmHg 53%
12:00 +8°C° 0 mm 4 mps 670 mmHg 54%
13:00 +10°C° 0 mm 4 mps 670 mmHg 54%
14:00 +10°C° 0 mm 4 mps 670 mmHg 55%
15:00 +10°C° 0 mm 4 mps 670 mmHg 56%
16:00 +10°C° 0 mm 4 mps 670 mmHg 57%
17:00 +8°C° 0 mm 3 mps 670 mmHg 63%
18:00 +7°C° 0 mm 2 mps 670 mmHg 69%
19:00 +5°C° 0 mm 2 mps 670 mmHg 74%
20:00 +6°C° 0 mm 1 mps 671 mmHg 75%
21:00 +5°C° 0 mm 1 mps 671 mmHg 76%
22:00 +5°C° 0 mm 1 mps 671 mmHg 77%
23:00 +4°C° 0 mm 1 mps 671 mmHg 77%

Day after tomorrow, 8 May, Saturday

Time Temperature Precipitation Wind Pressure Humidity
00:00 +4°C° 0 mm 1 mps 671 mmHg 77%
01:00 +3°C° 0 mm 0 mps 671 mmHg 77%
02:00 +4°C° 0 mm 1 mps 671 mmHg 79%
03:00 +3°C° 0 mm 1 mps 670 mmHg 81%
04:00 +3°C° 0 mm 1 mps 670 mmHg 82%
05:00 +4°C° 0.3 mm 1 mps 670 mmHg 85%
06:00 +3°C° 0.3 mm 2 mps 670 mmHg 87%
07:00 +4°C° 0.3 mm 2 mps 669 mmHg 90%
08:00 +5°C° 0 mm 2 mps 669 mmHg 87%
09:00 +6°C° 0 mm 2 mps 669 mmHg 85%
10:00 +7°C° 0 mm 2 mps 669 mmHg 82%
11:00 +10°C° 0 mm 3 mps 669 mmHg 73%
12:00 +12°C° 0 mm 3 mps 669 mmHg 63%
13:00 +14°C° 0 mm 3 mps 668 mmHg 53%
14:00 +16°C° 0 mm 2 mps 668 mmHg 50%
15:00 +16°C° 0 mm 2 mps 668 mmHg 48%
16:00 +17°C° 0 mm 2 mps 667 mmHg 45%
17:00 +15°C° 0 mm 2 mps 667 mmHg 54%
18:00 +13°C° 0 mm 2 mps 667 mmHg 63%
19:00 +12°C° 0 mm 2 mps 666 mmHg 71%
20:00 +9°C° 0 mm 2 mps 666 mmHg 78%
21:00 +8°C° 0 mm 2 mps 666 mmHg 84%
22:00 +7°C° 0 mm 2 mps 666 mmHg 90%
23:00 +7°C° 0 mm 2 mps 666 mmHg 90%

9 May, Sunday

Time Temperature Precipitation Wind Pressure Humidity
00:00 +7°C° 0 mm 2 mps 665 mmHg 89%
01:00 +8°C° 0 mm 2 mps 665 mmHg 88%
02:00 +7°C° 0.3 mm 3 mps 666 mmHg 87%
03:00 +5°C° 0.3 mm 4 mps 666 mmHg 86%
04:00 +3°C° 0.3 mm 5 mps 667 mmHg 84%
05:00 +3°C° 0.3 mm 5 mps 668 mmHg 79%
06:00 +3°C° 0.3 mm 6 mps 668 mmHg 75%
07:00 +2°C° 0.3 mm 6 mps 669 mmHg 70%

10 May, Monday

Time Temperature Precipitation Wind Pressure Humidity

11 May, Tuesday

Time Temperature Precipitation Wind Pressure Humidity
Show more

We Need Your Consent

Meteoprog and our Service Providers may store and access personal data such as cookies, device identifiers or other similar technologies on your device and process such data to personalise content and ads, as well as provide social media features and to analyse the traffic.

  • Store and/or access information on your device

    Cookies, device identifiers or other information can be stored or accessed on your device for the purposes indicated above.

  • Personalised ads and content, ad and content measurement, audience insights, and products development

    Ads and content can be personalised based on a profile. More data can be added to better personalise ads and content. Ad and content performance can be measured. Insights about the audience who saw the ads and content can be derived. Such data can be used to develop or improve user’s experience, systems and software.

By clicking ‘I Agree’ you will allow the use of indicated cookies, device identifiers, web beacons or other similar technologies. Your settings can be changed in the browser on your device.

For certain purposes, legitimate interests may be relied on, rather than consent. You can read more about this in our Privacy and Cookie Policy.